When you browse on this site, cookies collect data to enhance your experience and personalize the content and advertising you see.
Visit our Privacy Policy to learn more. By continuing to use the site, you agree to this use of cookies and data.
  • In Hungary
  • List of Countries
  • For 7 days
  • Water Temperature
  • Satellite Maps
  • Weather Map
  • News
  • Weather Widgets
  • user-avatar
    Login

    Hourly Weather Amman

    Today, 21 July, Sunday

    Time Temperature Precipitation Wind Pressure Humidity
    00:00 +18°C° 0 mm 2 mps 688 mmHg 90%
    01:00 +18°C° 0 mm 2 mps 688 mmHg 91%
    02:00 +18°C° 0 mm 2 mps 688 mmHg 93%
    03:00 +17°C° 0 mm 2 mps 687 mmHg 94%
    04:00 +17°C° 0 mm 2 mps 687 mmHg 95%
    05:00 +17°C° 0 mm 2 mps 687 mmHg 96%
    06:00 +19°C° 0 mm 2 mps 688 mmHg 86%
    07:00 +21°C° 0 mm 2 mps 688 mmHg 77%
    08:00 +22°C° 0 mm 3 mps 689 mmHg 67%
    09:00 +25°C° 0 mm 3 mps 689 mmHg 58%
    10:00 +28°C° 0 mm 3 mps 689 mmHg 49%
    11:00 +30°C° 0 mm 4 mps 690 mmHg 39%
    12:00 +32°C° 0 mm 4 mps 689 mmHg 36%
    13:00 +33°C° 0 mm 5 mps 689 mmHg 32%
    14:00 +34°C° 0 mm 5 mps 689 mmHg 28%
    15:00 +33°C° 0 mm 6 mps 688 mmHg 33%
    16:00 +32°C° 0 mm 6 mps 688 mmHg 37%
    17:00 +30°C° 0 mm 7 mps 688 mmHg 42%
    18:00 +28°C° 0 mm 5 mps 688 mmHg 51%
    19:00 +25°C° 0 mm 4 mps 688 mmHg 60%
    20:00 +22°C° 0 mm 3 mps 687 mmHg 69%
    21:00 +21°C° 0 mm 2 mps 687 mmHg 71%
    22:00 +20°C° 0 mm 2 mps 687 mmHg 73%
    23:00 +19°C° 0 mm 2 mps 687 mmHg 75%

    Tomorrow, 22 July, Monday

    Time Temperature Precipitation Wind Pressure Humidity
    00:00 +19°C° 0 mm 2 mps 687 mmHg 77%
    01:00 +19°C° 0 mm 1 mps 686 mmHg 80%
    02:00 +18°C° 0 mm 1 mps 686 mmHg 83%
    03:00 +18°C° 0 mm 1 mps 686 mmHg 84%
    04:00 +18°C° 0 mm 1 mps 686 mmHg 85%
    05:00 +18°C° 0 mm 1 mps 686 mmHg 86%
    06:00 +21°C° 0 mm 1 mps 687 mmHg 72%
    07:00 +24°C° 0 mm 2 mps 688 mmHg 59%
    08:00 +27°C° 0 mm 3 mps 688 mmHg 46%
    09:00 +29°C° 0 mm 3 mps 689 mmHg 39%
    10:00 +31°C° 0 mm 3 mps 689 mmHg 32%
    11:00 +34°C° 0 mm 2 mps 689 mmHg 25%
    12:00 +36°C° 0 mm 3 mps 689 mmHg 22%
    13:00 +37°C° 0 mm 3 mps 688 mmHg 20%
    14:00 +38°C° 0 mm 3 mps 688 mmHg 17%
    15:00 +37°C° 0 mm 4 mps 688 mmHg 21%
    16:00 +36°C° 0 mm 6 mps 687 mmHg 25%
    17:00 +35°C° 0 mm 7 mps 687 mmHg 29%
    18:00 +32°C° 0 mm 5 mps 687 mmHg 36%
    19:00 +29°C° 0 mm 4 mps 686 mmHg 43%
    20:00 +26°C° 0 mm 2 mps 686 mmHg 50%
    21:00 +25°C° 0 mm 2 mps 686 mmHg 52%
    22:00 +24°C° 0 mm 2 mps 686 mmHg 55%
    23:00 +23°C° 0 mm 1 mps 686 mmHg 57%

    Day after tomorrow, 23 July, Tuesday

    Time Temperature Precipitation Wind Pressure Humidity
    00:00 +23°C° 0 mm 1 mps 685 mmHg 57%
    01:00 +22°C° 0 mm 1 mps 685 mmHg 58%
    02:00 +22°C° 0 mm 1 mps 685 mmHg 58%
    03:00 +21°C° 0 mm 1 mps 685 mmHg 59%
    04:00 +21°C° 0 mm 1 mps 685 mmHg 60%
    05:00 +20°C° 0 mm 1 mps 685 mmHg 61%
    06:00 +23°C° 0 mm 1 mps 686 mmHg 52%
    07:00 +26°C° 0 mm 2 mps 686 mmHg 42%
    08:00 +29°C° 0 mm 2 mps 687 mmHg 33%
    09:00 +32°C° 0 mm 2 mps 687 mmHg 29%
    10:00 +35°C° 0 mm 2 mps 687 mmHg 24%
    11:00 +37°C° 0 mm 2 mps 687 mmHg 20%
    12:00 +38°C° 0 mm 4 mps 687 mmHg 19%
    13:00 +40°C° 0 mm 5 mps 687 mmHg 18%
    14:00 +41°C° 0 mm 6 mps 686 mmHg 17%
    15:00 +39°C° 0 mm 6 mps 686 mmHg 21%
    16:00 +36°C° 0 mm 7 mps 686 mmHg 25%
    17:00 +34°C° 0 mm 8 mps 685 mmHg 29%
    18:00 +30°C° 0 mm 6 mps 685 mmHg 36%
    19:00 +28°C° 0 mm 5 mps 685 mmHg 42%
    20:00 +25°C° 0 mm 3 mps 685 mmHg 48%
    21:00 +24°C° 0 mm 3 mps 685 mmHg 51%
    22:00 +22°C° 0 mm 3 mps 685 mmHg 53%
    23:00 +22°C° 0 mm 3 mps 685 mmHg 55%

    24 July, Wednesday

    Time Temperature Precipitation Wind Pressure Humidity
    00:00 +21°C° 0 mm 2 mps 685 mmHg 57%
    01:00 +21°C° 0 mm 2 mps 685 mmHg 59%
    02:00 +20°C° 0 mm 2 mps 685 mmHg 62%
    03:00 +20°C° 0 mm 2 mps 685 mmHg 63%
    04:00 +20°C° 0 mm 2 mps 685 mmHg 65%
    05:00 +19°C° 0 mm 2 mps 685 mmHg 67%
    06:00 +21°C° 0 mm 2 mps 685 mmHg 58%
    07:00 +25°C° 0 mm 3 mps 686 mmHg 50%
    08:00 +27°C° 0 mm 3 mps 687 mmHg 41%
    09:00 +29°C° 0 mm 3 mps 687 mmHg 35%
    10:00 +32°C° 0 mm 4 mps 687 mmHg 30%
    11:00 +34°C° 0 mm 4 mps 688 mmHg 24%
    12:00 +35°C° 0 mm 4 mps 688 mmHg 22%
    13:00 +36°C° 0 mm 5 mps 687 mmHg 21%
    14:00 +37°C° 0 mm 5 mps 687 mmHg 19%
    15:00 +36°C° 0 mm 6 mps 687 mmHg 21%
    16:00 +35°C° 0 mm 6 mps 687 mmHg 23%
    17:00 +34°C° 0 mm 7 mps 687 mmHg 25%
    18:00 +30°C° 0 mm 5 mps 687 mmHg 33%
    19:00 +27°C° 0 mm 4 mps 686 mmHg 41%
    20:00 +24°C° 0 mm 3 mps 686 mmHg 49%
    21:00 +24°C° 0 mm 2 mps 686 mmHg 48%
    22:00 +23°C° 0 mm 2 mps 686 mmHg 47%
    23:00 +22°C° 0 mm 1 mps 686 mmHg 46%

    25 July, Thursday

    Time Temperature Precipitation Wind Pressure Humidity
    00:00 +22°C° 0 mm 1 mps 686 mmHg 45%
    01:00 +21°C° 0 mm 2 mps 686 mmHg 45%
    02:00 +21°C° 0 mm 2 mps 686 mmHg 44%
    03:00 +21°C° 0 mm 1 mps 686 mmHg 46%
    04:00 +20°C° 0 mm 1 mps 686 mmHg 48%
    05:00 +20°C° 0 mm 1 mps 686 mmHg 50%
    06:00 +23°C° 0 mm 1 mps 687 mmHg 42%
    07:00 +26°C° 0 mm 2 mps 687 mmHg 34%
    08:00 +29°C° 0 mm 2 mps 688 mmHg 26%
    09:00 +31°C° 0 mm 3 mps 688 mmHg 23%
    10:00 +33°C° 0 mm 3 mps 688 mmHg 19%
    11:00 +35°C° 0 mm 3 mps 689 mmHg 15%
    12:00 +36°C° 0 mm 4 mps 688 mmHg 14%
    13:00 +37°C° 0 mm 4 mps 688 mmHg 13%
    14:00 +39°C° 0 mm 5 mps 688 mmHg 11%
    15:00 +37°C° 0 mm 5 mps 687 mmHg 14%
    16:00 +36°C° 0 mm 6 mps 687 mmHg 18%
    17:00 +35°C° 0 mm 6 mps 687 mmHg 21%
    18:00 +32°C° 0 mm 5 mps 687 mmHg 28%
    19:00 +28°C° 0 mm 4 mps 687 mmHg 35%
    20:00 +25°C° 0 mm 3 mps 687 mmHg 41%
    21:00 +24°C° 0 mm 3 mps 686 mmHg 38%
    22:00 +23°C° 0 mm 2 mps 686 mmHg 35%
    23:00 +23°C° 0 mm 2 mps 686 mmHg 31%

    26 July, Friday

    Time Temperature Precipitation Wind Pressure Humidity
    00:00 +21°C° 0 mm 2 mps 686 mmHg 32%
    01:00 +21°C° 0 mm 2 mps 686 mmHg 32%
    02:00 +22°C° 0 mm 1 mps 685 mmHg 32%
    03:00 +20°C° 0 mm 2 mps 686 mmHg 36%
    04:00 +20°C° 0 mm 2 mps 686 mmHg 40%
    05:00 +20°C° 0 mm 2 mps 686 mmHg 44%
    06:00 +23°C° 0 mm 2 mps 686 mmHg 40%
    07:00 +26°C° 0 mm 2 mps 687 mmHg 36%
    08:00 +28°C° 0 mm 3 mps 687 mmHg 32%
    09:00 +30°C° 0 mm 3 mps 688 mmHg 29%
    10:00 +33°C° 0 mm 3 mps 688 mmHg 26%
    11:00 +35°C° 0 mm 3 mps 688 mmHg 24%
    12:00 +36°C° 0 mm 4 mps 687 mmHg 21%
    13:00 +37°C° 0 mm 4 mps 687 mmHg 19%
    14:00 +39°C° 0 mm 5 mps 687 mmHg 17%
    15:00 +37°C° 0 mm 5 mps 686 mmHg 21%
    16:00 +36°C° 0 mm 6 mps 686 mmHg 25%
    17:00 +34°C° 0 mm 7 mps 686 mmHg 29%
    18:00 +32°C° 0 mm 5 mps 685 mmHg 36%
    19:00 +28°C° 0 mm 4 mps 685 mmHg 43%
    20:00 +25°C° 0 mm 3 mps 685 mmHg 50%
    21:00 +25°C° 0 mm 3 mps 685 mmHg 52%
    22:00 +24°C° 0 mm 3 mps 685 mmHg 54%
    23:00 +22°C° 0 mm 3 mps 685 mmHg 55%
    Show more